Regional Weather Roundup
Issued by NWS

Home | Current Version | Previous Version | Text Only | Print | Product List | Glossary Off
Versions: 1 2 3 4 5 6 7 8 9 10 11 12 13 14 15 16 17 18 19 20 21 22 23 24 25 26 27 28 29 30 31 32 33 34 35 36 37 38 39 40 41 42 43 44 45

000
ASUS45 KBOU 220907
RWRCO

WEATHER ROUNDUP FOR COLORADO
NATIONAL WEATHER SERVICE DENVER/BOULDER CO
300 AM MDT WED OCT 22 2014

NOTE: "FAIR" INDICATES FEW OR NO CLOUDS BELOW 12000 FEET WITH NO
SIGNIFICANT WEATHER AND/OR OBSTRUCTIONS TO VISIBILITY.

COZ001>005-013-030-031-221000-
...NORTHWEST COLORADO...

CITY           SKY/WX    TMP DP  RH WIND       PRES   REMARKS
CRAIG          CLOUDY    43  39  86 SE5       30.13R
HAYDEN         CLOUDY    43  37  81 E8        30.15R
MEEKER         MOCLDY    43  38  82 MISG      30.13S
MOUNT WERNER   NOT AVBL
STEAMBOAT SPGS CLOUDY    40  37  89 E7        30.16R
WALDEN         CLOUDY    37  34  87 S9        30.14F
$$

COZ006>008-011-221000-
...WEST CENTRAL VALLEYS...

CITY           SKY/WX    TMP DP  RH WIND       PRES   REMARKS
GRAND JUNCTION MOCLDY    48  43  82 CALM      30.05R
MONTROSE       CLOUDY    47  41  80 SE10      30.12R
EAGLE          CLOUDY    46  43  87 S3        30.20R
RIFLE          LGT RAIN  47  44  90 NE5       30.14R
DELTA          MOCLDY    51  48  90 CALM      30.08R
NUCLA          MOCLDY    45  37  76 SE7       30.13R
$$

COZ017>023-064>068-221000-
...SOUTHWEST COLORADO...

CITY           SKY/WX    TMP DP  RH WIND       PRES   REMARKS
DURANGO        PTCLDY    42  40  92 CALM      30.16S
CORTEZ         CLEAR     41  38  89 CALM      30.11S
PAGOSA SPRINGS CLOUDY    45  44  98 CALM      30.21R
TELLURIDE      NOT AVBL
WOLF CREEK PAS FOG       32  32 100 SW21G30     N/A  VSB 1/4 WCI  20
$$

COZ009-010-012-014-032>034-037-058>063-221000-
...CENTRAL COLORADO...

CITY           SKY/WX    TMP DP  RH WIND       PRES   REMARKS
ASPEN          LGT RAIN  41  39  93 CALM      30.21R
BUENA VISTA    PTCLDY    37  33  89 CALM      30.16S
COPPER MTN     FOG       34  30  86 W21       30.31R VSB<1/4 WCI  22
BERTHOUD PASS  FOG       27  23  86 NW20G30   30.31R VSB<1/4 WCI  13
COTTONWOOD PAS PTCLDY    45  32  61 W3        30.22S
GUNNISON       PTCLDY    34  28  80 CALM      30.21S
KREMMLING      LGT RAIN  41  36  81 CALM        N/A
LEADVILLE      PTCLDY    30  28  92 NE6       30.22R WCI  24
MONARCH PASS   FOG       32  32 100 MISG      30.39F VSB<1/4
SALIDA         PTCLDY    44  40  85 CALM      30.21S
SUNLIGHT       SNOW      34  34 100 CALM      30.28F VSB 1/2
WILKERSON PASS NOT AVBL
$$

COZ069>075-221000-
...SAN LUIS VALLEY/SANGRE DE CRISTO MOUNTAINS...

CITY           SKY/WX    TMP DP  RH WIND       PRES   REMARKS
ALAMOSA        PTCLDY    38  35  89 E3        30.16S
LA VETA PASS   PTCLDY    39  36  87 SW7       30.25S
SAGUACHE       CLEAR     36  32  87 NW3       30.18S
$$

COZ035-036-038>040-221000-
...NORTHERN COLORADO FRONT RANGE...

CITY           SKY/WX    TMP DP  RH WIND       PRES   REMARKS
DENVER INTL AP CLOUDY    53  44  71 N10       29.99R
DMNS CITY PARK   N/A     54  42  64 N3        30.00S
AURORA         MOCLDY    52  44  74 NW7       30.02R
FRONT RANGE AP MOCLDY    54  46  76 NW9       30.00R
ERIE MUNI ARPT PTCLDY    48  45  91 SW5       30.01R
BOULDER MUN AP PTCLDY    52  41  66 S3        30.01R
CENTENNIAL     MOCLDY    51  41  68 N9        30.02R
BROOMFIELD     PTCLDY    52  43  71 N7        30.03R
FORT COLLINS   MOCLDY    54  37  54 W8        30.00S
LONGMONT       MOCLDY    48  42  80 SW5       30.02R
$$

COZ041-046-047-076>085-087-088-221000-
...PIKES PEAK/PALMER DIVIDE AND SOUTHERN FOOTHILLS...

CITY           SKY/WX    TMP DP  RH WIND       PRES   REMARKS
COLO. SPRINGS  MOCLDY    56  37  49 N10       30.02R
A. F. ACADEMY  MOCLDY    57  34  42 NW7       30.03R
ELLICOTT       CLOUDY    56  38  50 NE8       30.01R
FALCON         MOCLDY    50  35  55 NW7       30.07R
FORT CARSON    MOCLDY    55  40  56 CALM      29.99R
LIMON          CLOUDY    45  41  86 N5        30.00S
MONUMENT HILL  CLOUDY    46  37  71 E3        30.06R
TRINIDAD       MOCLDY    54  43  66 W14       30.02S
$$

COZ042>045-048>051-090-091-221000-
...NORTHEAST COLORADO...

CITY           SKY/WX    TMP DP  RH WIND       PRES   REMARKS
GREELEY ARPT   CLOUDY    52  43  71 E6        29.99S
AKRON          LGT RAIN  54  43  66 N12       29.97R
BURLINGTON     MOCLDY    58  47  66 SW10      29.96R
WRAY           CLOUDY    58  47  67 SW8       29.91S
STERLING       CLOUDY    57  48  72 N5        29.93S
HOLYOKE        CLOUDY    54  45  71 CALM      29.94R
FORT MORGAN    CLOUDY    59  43  55 NW15G23   29.98R
$$

COZ086-089-092>099-221000-
...SOUTHEAST COLORADO...

CITY           SKY/WX    TMP DP  RH WIND       PRES   REMARKS
PUEBLO         PTCLDY    54  42  64 CALM      29.96R
LA JUNTA       MOCLDY    60  47  61 SW18      29.92S
LAMAR          PTCLDY    54  48  80 CALM      29.91S
SPRINGFIELD      N/A     56  50  80 SW15G23   30.00S
$$



USA.gov is the U.S. government's official web portal to all federal, state and local government web resources and services.